OneWeb SL0204

operational
NORAD ID: 48225 Int'l Des: 2021-031 Owner: ONEWEBN Country: UK Constellation: oneweb
LEOCIRCULARPOLARONEWEB_TYPE

Über OneWeb SL0204

Beschreibung wird geladen...

Live-Position

3D-Globus wird geladen...

Nächste Überflüge

Höhenverlauf

Altitude vs Time

uPlot chart will show altitude changes over time

Zweizeiliger Elementsatz

1 48225U 21031R 25305.34179716 -.00000414 00000-0 -11513-2 0 9995
2 48225 87.9013 335.0925 0001594 91.3016 268.8296 13.14501768218320
Epoch: 1. Nov. 2025 • Age: 24 hours

Aktueller Status

Höhe 1214.8 km
Geschwindigkeit 7.25 km/s
Subsatellitenpunkt 59.09°N, 172.76°E
Startdatum 25. Apr. 2021
Alter 4.5 years
Typ internet

Technische Details

Klassifizierung Payload
Masse 148.00 kg
Trockenmasse 140.00 kg
Gesamtmasse 148.00 kg
Länge 1.30 m
Durchmesser 1.00 m
Spannweite 5.00 m
Form Trapezoid+2 pan
Hersteller ONEWUS
Bus-Typ ARROW
Phasenstatus In Orbit
Besitzer/Staat ONEWEBN/UK

Große Konstellationen

Loading constellations...